Météo par heure à Ali Bayramli

Ce jour, 24 Octobre, Samedi

Heure Température Précipitation Vent Pression Humidité
00:00 +18°C° 0 mm 1 m/s 765 mmHg 84%
01:00 +16°C° 0 mm 1 m/s 765 mmHg 86%
02:00 +16°C° 0 mm 1 m/s 765 mmHg 88%
03:00 +14°C° 0 mm 0 m/s 765 mmHg 89%
04:00 +15°C° 0 mm 1 m/s 764 mmHg 90%
05:00 +15°C° 0 mm 1 m/s 764 mmHg 90%
06:00 +15°C° 0 mm 1 m/s 764 mmHg 91%
07:00 +18°C° 0 mm 1 m/s 764 mmHg 84%
08:00 +18°C° 0 mm 2 m/s 764 mmHg 77%
09:00 +20°C° 0 mm 3 m/s 764 mmHg 69%
10:00 +22°C° 0 mm 3 m/s 763 mmHg 61%
11:00 +24°C° 0 mm 3 m/s 763 mmHg 52%
12:00 +25°C° 0 mm 3 m/s 762 mmHg 43%
13:00 +26°C° 0 mm 3 m/s 762 mmHg 41%
14:00 +26°C° 0 mm 3 m/s 762 mmHg 39%
15:00 +27°C° 0 mm 3 m/s 761 mmHg 38%
16:00 +25°C° 0 mm 4 m/s 761 mmHg 48%
17:00 +22°C° 0 mm 4 m/s 761 mmHg 59%
18:00 +21°C° 0 mm 5 m/s 761 mmHg 70%
19:00 +20°C° 0 mm 4 m/s 761 mmHg 76%
20:00 +19°C° 0 mm 3 m/s 762 mmHg 82%
21:00 +19°C° 0 mm 3 m/s 762 mmHg 88%
22:00 +18°C° 0 mm 2 m/s 761 mmHg 90%
23:00 +18°C° 0 mm 2 m/s 761 mmHg 92%

Demain, 25 Octobre, Dimanche

Heure Température Précipitation Vent Pression Humidité
00:00 +19°C° 0 mm 1 m/s 761 mmHg 94%
01:00 +18°C° 0 mm 1 m/s 761 mmHg 94%
02:00 +18°C° 0 mm 1 m/s 761 mmHg 95%
03:00 +18°C° 0 mm 1 m/s 761 mmHg 95%
04:00 +15°C° 0 mm 0 m/s 761 mmHg 96%
05:00 +15°C° 0 mm 0 m/s 761 mmHg 96%
06:00 +15°C° 0 mm 0 m/s 760 mmHg 96%
07:00 +18°C° 0 mm 1 m/s 761 mmHg 90%
08:00 +20°C° 0 mm 1 m/s 761 mmHg 83%
09:00 +22°C° 0 mm 1 m/s 761 mmHg 76%
10:00 +23°C° 0 mm 1 m/s 761 mmHg 67%
11:00 +25°C° 0 mm 1 m/s 760 mmHg 57%
12:00 +26°C° 0 mm 1 m/s 760 mmHg 48%
13:00 +26°C° 0 mm 1 m/s 759 mmHg 46%
14:00 +27°C° 0 mm 1 m/s 759 mmHg 43%
15:00 +27°C° 0 mm 1 m/s 759 mmHg 41%
16:00 +26°C° 0 mm 2 m/s 759 mmHg 49%
17:00 +24°C° 0 mm 2 m/s 759 mmHg 58%
18:00 +22°C° 0 mm 3 m/s 759 mmHg 66%
19:00 +21°C° 0 mm 2 m/s 759 mmHg 71%
20:00 +20°C° 0 mm 2 m/s 760 mmHg 76%
21:00 +21°C° 0 mm 1 m/s 760 mmHg 80%
22:00 +21°C° 0 mm 1 m/s 760 mmHg 81%
23:00 +20°C° 0 mm 1 m/s 760 mmHg 81%

Après-demain, 26 Octobre, Lundi

Heure Température Précipitation Vent Pression Humidité
00:00 +20°C° 0 mm 1 m/s 760 mmHg 82%
01:00 +20°C° 0 mm 1 m/s 760 mmHg 82%
02:00 +19°C° 0 mm 1 m/s 760 mmHg 82%
03:00 +19°C° 0 mm 1 m/s 761 mmHg 83%
04:00 +19°C° 0 mm 1 m/s 761 mmHg 83%
05:00 +18°C° 0 mm 1 m/s 761 mmHg 82%
06:00 +18°C° 0 mm 1 m/s 761 mmHg 82%
07:00 +19°C° 0 mm 1 m/s 761 mmHg 74%
08:00 +21°C° 0 mm 1 m/s 762 mmHg 66%
09:00 +22°C° 0 mm 1 m/s 762 mmHg 58%
10:00 +24°C° 0 mm 2 m/s 762 mmHg 50%
11:00 +25°C° 0 mm 2 m/s 762 mmHg 42%
12:00 +26°C° 0 mm 2 m/s 761 mmHg 33%
13:00 +26°C° 0 mm 3 m/s 761 mmHg 31%
14:00 +26°C° 0 mm 4 m/s 761 mmHg 30%
15:00 +26°C° 0 mm 5 m/s 761 mmHg 28%
16:00 +25°C° 0 mm 4 m/s 761 mmHg 35%
17:00 +22°C° 0 mm 4 m/s 761 mmHg 43%
18:00 +21°C° 0 mm 3 m/s 762 mmHg 50%
19:00 +20°C° 0 mm 3 m/s 762 mmHg 56%
20:00 +19°C° 0 mm 3 m/s 762 mmHg 62%
21:00 +18°C° 0 mm 2 m/s 762 mmHg 69%
22:00 +18°C° 0 mm 2 m/s 762 mmHg 72%
23:00 +17°C° 0 mm 2 m/s 762 mmHg 75%

, 27 Octobre, Mardi

Heure Température Précipitation Vent Pression Humidité
00:00 +16°C° 0 mm 1 m/s 761 mmHg 78%
01:00 +16°C° 0 mm 1 m/s 761 mmHg 78%
02:00 +16°C° 0 mm 1 m/s 761 mmHg 79%
03:00 +15°C° 0 mm 1 m/s 761 mmHg 79%
04:00 +15°C° 0 mm 1 m/s 762 mmHg 79%
05:00 +15°C° 0 mm 1 m/s 762 mmHg 79%
06:00 +14°C° 0 mm 1 m/s 762 mmHg 79%
07:00 +16°C° 0 mm 1 m/s 762 mmHg 69%
08:00 +18°C° 0 mm 2 m/s 763 mmHg 60%
09:00 +20°C° 0 mm 2 m/s 763 mmHg 50%
10:00 +21°C° 0 mm 3 m/s 763 mmHg 46%
11:00 +23°C° 0 mm 4 m/s 763 mmHg 42%
12:00 +25°C° 0 mm 5 m/s 763 mmHg 38%
13:00 +23°C° 0 mm 6 m/s 763 mmHg 41%
14:00 +23°C° 0 mm 7 m/s 763 mmHg 45%
15:00 +22°C° 0 mm 8 m/s 763 mmHg 48%
16:00 +21°C° 0 mm 8 m/s 763 mmHg 54%
17:00 +18°C° 0 mm 7 m/s 763 mmHg 59%
18:00 +17°C° 0 mm 7 m/s 764 mmHg 64%
19:00 +17°C° 0 mm 7 m/s 764 mmHg 65%
20:00 +16°C° 0 mm 7 m/s 765 mmHg 67%
21:00 +16°C° 0 mm 7 m/s 765 mmHg 68%
22:00 +15°C° 0 mm 7 m/s 765 mmHg 69%
23:00 +15°C° 0 mm 6 m/s 765 mmHg 69%

27 Octobre, Mardi

Heure Température Précipitation Vent Pression Humidité
00:00 +16°C° 0 mm 1 m/s 761 mmHg 78%
01:00 +16°C° 0 mm 1 m/s 761 mmHg 78%
02:00 +16°C° 0 mm 1 m/s 761 mmHg 79%
03:00 +15°C° 0 mm 1 m/s 761 mmHg 79%
04:00 +15°C° 0 mm 1 m/s 762 mmHg 79%
05:00 +15°C° 0 mm 1 m/s 762 mmHg 79%
06:00 +14°C° 0 mm 1 m/s 762 mmHg 79%
07:00 +16°C° 0 mm 1 m/s 762 mmHg 69%
08:00 +18°C° 0 mm 2 m/s 763 mmHg 60%
09:00 +20°C° 0 mm 2 m/s 763 mmHg 50%
10:00 +21°C° 0 mm 3 m/s 763 mmHg 46%
11:00 +23°C° 0 mm 4 m/s 763 mmHg 42%
12:00 +25°C° 0 mm 5 m/s 763 mmHg 38%
13:00 +23°C° 0 mm 6 m/s 763 mmHg 41%
14:00 +23°C° 0 mm 7 m/s 763 mmHg 45%
15:00 +22°C° 0 mm 8 m/s 763 mmHg 48%
16:00 +21°C° 0 mm 8 m/s 763 mmHg 54%
17:00 +18°C° 0 mm 7 m/s 763 mmHg 59%
18:00 +17°C° 0 mm 7 m/s 764 mmHg 64%
19:00 +17°C° 0 mm 7 m/s 764 mmHg 65%
20:00 +16°C° 0 mm 7 m/s 765 mmHg 67%
21:00 +16°C° 0 mm 7 m/s 765 mmHg 68%
22:00 +15°C° 0 mm 7 m/s 765 mmHg 69%
23:00 +15°C° 0 mm 6 m/s 765 mmHg 69%

28 Octobre, Mercredi

Heure Température Précipitation Vent Pression Humidité
00:00 +15°C° 0 mm 6 m/s 765 mmHg 69%
01:00 +14°C° 0 mm 6 m/s 765 mmHg 68%
02:00 +14°C° 0 mm 6 m/s 765 mmHg 68%
03:00 +14°C° 0 mm 5 m/s 766 mmHg 67%
04:00 +14°C° 0 mm 5 m/s 766 mmHg 67%
05:00 +13°C° 0 mm 5 m/s 766 mmHg 67%
06:00 +13°C° 0 mm 4 m/s 766 mmHg 66%
07:00 +14°C° 0 mm 4 m/s 767 mmHg 61%
08:00 +17°C° 0 mm 4 m/s 767 mmHg 56%
09:00 +18°C° 0 mm 4 m/s 767 mmHg 51%
10:00 +19°C° 0 mm 4 m/s 767 mmHg 46%
11:00 +20°C° 0 mm 5 m/s 767 mmHg 42%
12:00 +21°C° 0 mm 5 m/s 767 mmHg 37%
13:00 +21°C° 0 mm 5 m/s 767 mmHg 38%
14:00 +20°C° 0 mm 5 m/s 767 mmHg 39%
15:00 +20°C° 0 mm 5 m/s 767 mmHg 41%
16:00 +19°C° 0 mm 5 m/s 767 mmHg 46%
17:00 +18°C° 0 mm 4 m/s 767 mmHg 51%
18:00 +15°C° 0 mm 4 m/s 767 mmHg 56%
19:00 +15°C° 0 mm 4 m/s 768 mmHg 58%
20:00 +15°C° 0 mm 4 m/s 768 mmHg 59%
21:00 +16°C° 0 mm 3 m/s 768 mmHg 60%
22:00 +14°C° 0 mm 3 m/s 768 mmHg 61%
23:00 +14°C° 0 mm 3 m/s 768 mmHg 61%

29 Octobre, Jeudi

Heure Température Précipitation Vent Pression Humidité
00:00 +15°C° 0 mm 2 m/s 767 mmHg 61%
01:00 +15°C° 0 mm 2 m/s 767 mmHg 61%
02:00 +15°C° 0 mm 2 m/s 767 mmHg 61%
03:00 +14°C° 0 mm 2 m/s 767 mmHg 61%
04:00 +14°C° 0 mm 1 m/s 767 mmHg 63%
05:00 +14°C° 0 mm 1 m/s 767 mmHg 65%
06:00 +13°C° 0 mm 0 m/s 767 mmHg 66%
07:00 +14°C° 0 mm 0 m/s 767 mmHg 62%
08:00 +16°C° 0 mm 0 m/s 767 mmHg 58%
09:00 +17°C° 0 mm 0 m/s 767 mmHg 53%
10:00 +20°C° 0 mm 1 m/s 767 mmHg 52%
11:00 +21°C° 0 mm 1 m/s 767 mmHg 52%
12:00 +21°C° 0 mm 2 m/s 766 mmHg 51%
13:00 +21°C° 0 mm 3 m/s 766 mmHg 54%
14:00 +21°C° 0 mm 4 m/s 766 mmHg 57%
15:00 +21°C° 0 mm 5 m/s 765 mmHg 60%
16:00 +20°C° 0 mm 5 m/s 766 mmHg 65%
17:00 +19°C° 0 mm 5 m/s 766 mmHg 70%
18:00 +18°C° 0 mm 4 m/s 766 mmHg 75%
19:00 +18°C° 0 mm 4 m/s 766 mmHg 77%
20:00 +18°C° 0 mm 3 m/s 766 mmHg 79%
21:00 +18°C° 0 mm 2 m/s 766 mmHg 82%
22:00 +18°C° 0 mm 2 m/s 766 mmHg 82%
23:00 +18°C° 0 mm 2 m/s 765 mmHg 82%
Voir plus

Nous avons besoin de votre consentement

Meteoprog et ses fournisseurs de services peuvent stocker et accéder à des données personnelles telles que des cookies, des identifiants d'appareils ou d'autres technologies similaires sur votre appareil et traiter ces données pour personnaliser le contenu et les publicités, ainsi que pour fournir des fonctionnalités de médias sociaux et analyser le trafic.

  • Stocker et/ou accéder à des informations sur votre appareil

    Des cookies, des identifiants d'appareils ou d'autres informations peuvent être stockés ou accessibles sur votre appareil aux fins indiquées ci-dessus.

  • Annonces et contenus personnalisés, mesure des annonces et des contenus, connaissance de l'audience et développement de produits

    Les annonces et le contenu peuvent être personnalisés en fonction d'un profil. D'autres données peuvent être ajoutées pour mieux personnaliser les annonces et le contenu. Les performances des publicités et du contenu peuvent être mesurées. Il est possible d'obtenir des informations sur le public qui a vu les publicités et le contenu. Ces données peuvent être utilisées pour développer ou améliorer l'expérience de l'utilisateur, les systèmes et les logiciels.

En cliquant sur "J'accepte", vous autorisez l'utilisation de cookies, des identifiants d'appareils, des balises web ou d'autres technologies similaires. Vos paramètres peuvent être modifiés dans le navigateur de votre appareil.

Dans certains cas, des intérêts légitimes peuvent être invoqués plutôt qu'un consentement. Vous pouvez en savoir plus à ce sujet dans notre Politique de confidentialité et de cookies.